SKUNK1 KCBM-KCBM

Flight info

Callsign SKUNK1
Flight time 1h 12m
Altitude 22000
Route IGB SQS CRINK D0030 HLI SWIKI CBM
Aircraft T38/M-DGILORTUVZ/EBI

Departure

Time 2026-05-07 02:18
Airport Columbus Air Force Base (KCBM)

Arrival

Time 2026-05-07 03:30
Airport Columbus Air Force Base (KCBM)
Time Latitude Longitude Altitude Speed Heading
2026-05-07 02:08 33.62944 -88.43508 202 ft 0 kts 134°
2026-05-07 02:15 33.62931 -88.43490 204 ft 6 kts 123°
2026-05-07 02:15 33.62927 -88.43450 207 ft 5 kts 131°
2026-05-07 02:15 33.62925 -88.43411 211 ft 7 kts 45°
2026-05-07 02:16 33.62982 -88.43346 204 ft 14 kts 43°
2026-05-07 02:16 33.63051 -88.43259 204 ft 14 kts 41°
2026-05-07 02:16 33.63114 -88.43185 200 ft 11 kts 45°
2026-05-07 02:16 33.63138 -88.43156 204 ft 0 kts 39°
2026-05-07 02:17 33.63139 -88.43155 203 ft 2 kts 39°
2026-05-07 02:17 33.63191 -88.43132 206 ft 10 kts
2026-05-07 02:17 33.63265 -88.43145 203 ft 11 kts 325°
2026-05-07 02:17 33.63543 -88.43474 200 ft 109 kts 313°
2026-05-07 02:18 33.64279 -88.44350 261 ft 179 kts 316°
2026-05-07 02:18 33.65353 -88.45624 706 ft 252 kts 316°
2026-05-07 02:18 33.66742 -88.47243 1908 ft 303 kts 314°
2026-05-07 02:18 33.68369 -88.49121 3499 ft 344 kts 315°
2026-05-07 02:19 33.70168 -88.51255 5164 ft 386 kts 313°
2026-05-07 02:19 33.72016 -88.53617 6745 ft 390 kts 303°
2026-05-07 02:19 33.73287 -88.56447 8687 ft 389 kts 289°
2026-05-07 02:19 33.74094 -88.59543 10519 ft 385 kts 279°
2026-05-07 02:20 33.74436 -88.62694 12533 ft 374 kts 270°
2026-05-07 02:20 33.74392 -88.65708 14780 ft 354 kts 265°
2026-05-07 02:20 33.74066 -88.68631 16561 ft 356 kts 258°
2026-05-07 02:20 33.73548 -88.71567 17925 ft 360 kts 258°
2026-05-07 02:21 33.73040 -88.74440 19205 ft 359 kts 258°
2026-05-07 02:21 33.72547 -88.77391 20492 ft 359 kts 258°
2026-05-07 02:21 33.72059 -88.80345 21630 ft 363 kts 257°
2026-05-07 02:21 33.71557 -88.83408 22042 ft 385 kts 258°
2026-05-07 02:22 33.71029 -88.86653 22044 ft 412 kts 257°
2026-05-07 02:22 33.70463 -88.90127 22084 ft 438 kts 257°
2026-05-07 02:22 33.69843 -88.93848 21989 ft 463 kts 257°
2026-05-07 02:22 33.69198 -88.97606 21936 ft 468 kts 257°
2026-05-07 02:23 33.68533 -89.01434 21951 ft 470 kts 257°
2026-05-07 02:23 33.67862 -89.05298 21922 ft 474 kts 257°
2026-05-07 02:23 33.67176 -89.09186 21904 ft 476 kts 257°
2026-05-07 02:23 33.66478 -89.13094 21935 ft 478 kts 257°
2026-05-07 02:24 33.65785 -89.16979 21922 ft 481 kts 257°
2026-05-07 02:24 33.65091 -89.20912 22026 ft 481 kts 257°
2026-05-07 02:24 33.64415 -89.24794 22051 ft 481 kts 257°
2026-05-07 02:24 33.63728 -89.28756 21933 ft 484 kts 257°
2026-05-07 02:25 33.63043 -89.32666 22119 ft 477 kts 257°
2026-05-07 02:25 33.62353 -89.36573 22139 ft 476 kts 257°
2026-05-07 02:25 33.61662 -89.40494 21863 ft 479 kts 257°
2026-05-07 02:25 33.60988 -89.44333 21922 ft 471 kts 257°
2026-05-07 02:26 33.60312 -89.48124 21970 ft 461 kts 257°
2026-05-07 02:26 33.59639 -89.51878 21939 ft 455 kts 257°
2026-05-07 02:26 33.58981 -89.55560 22038 ft 447 kts 257°
2026-05-07 02:26 33.58334 -89.59129 22056 ft 441 kts 256°
2026-05-07 02:27 33.57683 -89.62686 22034 ft 437 kts 256°
2026-05-07 02:27 33.57025 -89.66231 21956 ft 434 kts 256°
2026-05-07 02:27 33.56368 -89.69742 22125 ft 426 kts 256°
2026-05-07 02:27 33.55717 -89.73214 21945 ft 426 kts 256°
2026-05-07 02:28 33.55069 -89.76645 21945 ft 423 kts 256°
2026-05-07 02:28 33.54427 -89.80038 21976 ft 420 kts 256°
2026-05-07 02:28 33.53778 -89.83435 22039 ft 416 kts 256°
2026-05-07 02:28 33.53137 -89.86809 22027 ft 415 kts 256°
2026-05-07 02:29 33.52496 -89.90165 21957 ft 415 kts 256°
2026-05-07 02:29 33.51850 -89.93532 21964 ft 414 kts 256°
2026-05-07 02:29 33.51204 -89.96906 21954 ft 414 kts 256°
2026-05-07 02:29 33.50558 -90.00268 22002 ft 413 kts 256°
2026-05-07 02:30 33.49924 -90.03593 22026 ft 411 kts 256°
2026-05-07 02:30 33.49284 -90.06924 22074 ft 410 kts 256°
2026-05-07 02:30 33.48645 -90.10222 21996 ft 411 kts 256°
2026-05-07 02:30 33.47991 -90.13558 22040 ft 409 kts 256°
2026-05-07 02:31 33.47341 -90.16857 22036 ft 409 kts 256°
2026-05-07 02:31 33.46686 -90.20180 22058 ft 409 kts 256°
2026-05-07 02:31 33.46031 -90.23503 22015 ft 409 kts 256°
2026-05-07 02:31 33.45375 -90.26821 21986 ft 410 kts 255°
2026-05-07 02:32 33.45299 -90.30112 21951 ft 434 kts 305°
2026-05-07 02:32 33.48422 -90.30408 21945 ft 515 kts
2026-05-07 02:32 33.51929 -90.29328 21931 ft 537 kts
2026-05-07 02:32 33.55571 -90.28248 21991 ft 540 kts
2026-05-07 02:33 33.59204 -90.27178 21983 ft 539 kts
2026-05-07 02:33 33.62850 -90.26108 21996 ft 536 kts
2026-05-07 02:33 33.66456 -90.25053 22076 ft 531 kts
2026-05-07 02:33 33.70039 -90.24003 22102 ft 529 kts
2026-05-07 02:34 33.73600 -90.22966 22052 ft 525 kts
2026-05-07 02:34 33.77173 -90.22133 22034 ft 522 kts
2026-05-07 02:34 33.80694 -90.21337 22059 ft 519 kts
2026-05-07 02:34 33.84240 -90.20543 22044 ft 517 kts
2026-05-07 02:35 33.87750 -90.19764 22031 ft 516 kts
2026-05-07 02:35 33.91289 -90.18989 21976 ft 516 kts
2026-05-07 02:35 33.94780 -90.18232 21875 ft 517 kts
2026-05-07 02:35 33.98308 -90.17455 21912 ft 516 kts
2026-05-07 02:36 34.00649 -90.16906 21968 ft 514 kts
2026-05-07 02:36 34.04111 -90.16091 22000 ft 512 kts
2026-05-07 02:36 34.07622 -90.15256 22021 ft 512 kts
2026-05-07 02:36 34.11073 -90.14404 21981 ft 512 kts
2026-05-07 02:37 34.14569 -90.13529 21932 ft 512 kts
2026-05-07 02:37 34.18041 -90.12661 21876 ft 512 kts
2026-05-07 02:37 34.21560 -90.11757 21047 ft 524 kts
2026-05-07 02:37 34.25115 -90.10659 19538 ft 527 kts
2026-05-07 02:38 34.28614 -90.09407 18244 ft 519 kts
2026-05-07 02:38 34.32007 -90.08144 17019 ft 506 kts
2026-05-07 02:38 34.35334 -90.06893 15888 ft 493 kts 10°
2026-05-07 02:38 34.38573 -90.05694 14950 ft 477 kts 11°
2026-05-07 02:39 34.41704 -90.04564 14059 ft 462 kts 11°
2026-05-07 02:39 34.44734 -90.03499 13018 ft 452 kts 11°
2026-05-07 02:39 34.47732 -90.02485 11981 ft 441 kts 10°
2026-05-07 02:39 34.50623 -90.01552 10963 ft 428 kts 10°
2026-05-07 02:40 34.53567 -90.00644 8885 ft 443 kts 11°
2026-05-07 02:40 34.56569 -89.99765 7105 ft 447 kts 11°
2026-05-07 02:40 34.59585 -89.98932 5710 ft 439 kts 11°
2026-05-07 02:40 34.62528 -89.98184 4816 ft 410 kts 10°
2026-05-07 02:41 34.65085 -89.97597 4381 ft 362 kts
2026-05-07 02:41 34.67522 -89.97505 4024 ft 341 kts
2026-05-07 02:41 34.69834 -89.97442 3686 ft 322 kts
2026-05-07 02:41 34.72015 -89.97387 3506 ft 302 kts
2026-05-07 02:42 34.74079 -89.97295 3353 ft 296 kts
2026-05-07 02:42 34.76160 -89.97177 3212 ft 302 kts
2026-05-07 02:42 34.78287 -89.97145 3138 ft 310 kts
2026-05-07 02:42 34.80480 -89.97156 3095 ft 318 kts
2026-05-07 02:43 34.82689 -89.97166 2986 ft 324 kts
2026-05-07 02:43 34.84959 -89.97148 2656 ft 328 kts
2026-05-07 02:43 34.87027 -89.97168 2477 ft 265 kts
2026-05-07 02:43 34.88739 -89.97157 2339 ft 210 kts
2026-05-07 02:44 34.90034 -89.97131 2240 ft 171 kts
2026-05-07 02:44 34.91204 -89.97136 2137 ft 168 kts
2026-05-07 02:44 34.92355 -89.97107 2050 ft 167 kts
2026-05-07 02:44 34.93521 -89.97102 2014 ft 167 kts
2026-05-07 02:45 34.94672 -89.97132 1928 ft 162 kts
2026-05-07 02:45 34.95797 -89.97145 1669 ft 159 kts
2026-05-07 02:45 34.96902 -89.97170 1401 ft 160 kts
2026-05-07 02:45 34.98018 -89.97183 1178 ft 158 kts
2026-05-07 02:46 34.99099 -89.97192 984 ft 153 kts
2026-05-07 02:46 35.00179 -89.97200 754 ft 153 kts
2026-05-07 02:46 35.01245 -89.97222 517 ft 158 kts
2026-05-07 02:46 35.02342 -89.97248 319 ft 146 kts
2026-05-07 02:47 35.03288 -89.97267 328 ft 157 kts
2026-05-07 02:47 35.04729 -89.97235 1114 ft 242 kts 11°
2026-05-07 02:47 35.06507 -89.96355 2468 ft 311 kts 28°
2026-05-07 02:47 35.08473 -89.95102 4037 ft 316 kts 27°
2026-05-07 02:48 35.10503 -89.93780 4783 ft 351 kts 26°
2026-05-07 02:48 35.12733 -89.92281 4482 ft 377 kts 28°
2026-05-07 02:48 35.15002 -89.90690 4464 ft 383 kts 27°
2026-05-07 02:48 35.17400 -89.89281 4138 ft 383 kts 14°
2026-05-07 02:49 35.20000 -89.88903 4067 ft 370 kts
2026-05-07 02:49 35.22560 -89.88765 3671 ft 374 kts
2026-05-07 02:49 35.25178 -89.88630 3415 ft 371 kts
2026-05-07 02:49 35.27724 -89.88658 3292 ft 357 kts 350°
2026-05-07 02:50 35.28397 -89.90950 3033 ft 343 kts 231°
2026-05-07 02:50 35.26454 -89.92470 3014 ft 327 kts 208°
2026-05-07 02:50 35.24508 -89.93781 2888 ft 306 kts 208°
2026-05-07 02:50 35.22731 -89.94987 2636 ft 285 kts 208°
2026-05-07 02:51 35.21066 -89.96126 2323 ft 249 kts 208°
2026-05-07 02:51 35.19715 -89.97021 2139 ft 207 kts 206°
2026-05-07 02:51 35.18410 -89.97614 2028 ft 198 kts 182°
2026-05-07 02:51 35.17057 -89.97606 1967 ft 187 kts 174°
2026-05-07 02:52 35.15787 -89.97565 1978 ft 179 kts 174°
2026-05-07 02:52 35.14555 -89.97553 1913 ft 176 kts 175°
2026-05-07 02:52 35.13315 -89.97535 1931 ft 181 kts 175°
2026-05-07 02:52 35.12041 -89.97509 1872 ft 177 kts 174°
2026-05-07 02:53 35.10833 -89.97475 1588 ft 169 kts 172°
2026-05-07 02:53 35.09688 -89.97405 1239 ft 165 kts 176°
2026-05-07 02:53 35.08556 -89.97375 981 ft 161 kts 177°
2026-05-07 02:53 35.07429 -89.97348 796 ft 163 kts 176°
2026-05-07 02:54 35.06275 -89.97322 586 ft 166 kts 178°
2026-05-07 02:54 35.05106 -89.97303 376 ft 168 kts 177°
2026-05-07 02:54 35.04041 -89.97283 322 ft 155 kts 177°
2026-05-07 02:54 35.02613 -89.97243 792 ft 255 kts 177°
2026-05-07 02:55 35.00697 -89.96929 2674 ft 298 kts 156°
2026-05-07 02:55 34.98793 -89.95649 5175 ft 321 kts 149°
2026-05-07 02:55 34.96878 -89.94089 7946 ft 326 kts 149°
2026-05-07 02:55 34.95001 -89.92503 10882 ft 329 kts 151°
2026-05-07 02:56 34.93147 -89.90899 13545 ft 335 kts 153°
2026-05-07 02:56 34.91210 -89.89180 15672 ft 348 kts 154°
2026-05-07 02:56 34.89342 -89.87142 17574 ft 379 kts 144°
2026-05-07 02:56 34.87519 -89.84544 18569 ft 429 kts 138°
2026-05-07 02:57 34.85800 -89.81378 19480 ft 474 kts 128°
2026-05-07 02:57 34.84081 -89.77732 19807 ft 519 kts 128°
2026-05-07 02:57 34.82198 -89.73777 19853 ft 558 kts 127°
2026-05-07 02:57 34.80240 -89.69754 19173 ft 536 kts 129°
2026-05-07 02:58 34.78265 -89.66051 18743 ft 501 kts 133°
2026-05-07 02:58 34.76326 -89.62714 17894 ft 481 kts 135°
2026-05-07 02:58 34.74304 -89.59558 17692 ft 464 kts 138°
2026-05-07 02:58 34.72239 -89.56573 17479 ft 459 kts 142°
2026-05-07 02:59 34.69961 -89.53909 17491 ft 455 kts 149°
2026-05-07 02:59 34.67462 -89.51554 17511 ft 451 kts 154°
2026-05-07 02:59 34.64908 -89.49438 17523 ft 451 kts 158°
2026-05-07 02:59 34.62251 -89.47522 17407 ft 455 kts 160°
2026-05-07 03:00 34.59490 -89.45622 17579 ft 457 kts 160°
2026-05-07 03:00 34.56741 -89.43731 17558 ft 465 kts 160°
2026-05-07 03:00 34.53821 -89.41759 17454 ft 505 kts 160°
2026-05-07 03:00 34.50826 -89.39680 15728 ft 395 kts 153°
2026-05-07 03:01 34.47820 -89.37086 7659 ft 634 kts 146°
2026-05-07 03:01 34.44310 -89.34070 9540 ft 549 kts 147°
2026-05-07 03:01 34.41487 -89.31579 14305 ft 513 kts 156°
2026-05-07 03:01 34.38267 -89.29494 14743 ft 536 kts 159°
2026-05-07 03:02 34.34885 -89.27509 15288 ft 557 kts 164°
2026-05-07 03:02 34.31094 -89.26115 15358 ft 579 kts 167°
2026-05-07 03:02 34.27197 -89.24893 15467 ft 559 kts 203°
2026-05-07 03:02 34.23474 -89.25662 15701 ft 540 kts 202°
2026-05-07 03:03 34.20078 -89.24234 14807 ft 293 kts 165°
2026-05-07 03:03 34.17192 -89.22804 7722 ft 548 kts 163°
2026-05-07 03:03 34.13921 -89.21326 11645 ft 487 kts 156°
2026-05-07 03:03 34.11178 -89.19385 16616 ft 434 kts 157°
2026-05-07 03:04 34.08746 -89.17038 16006 ft 512 kts 143°
2026-05-07 03:04 34.05943 -89.13462 11375 ft 637 kts 127°
2026-05-07 03:04 34.04000 -89.09522 15128 ft 515 kts 120°
2026-05-07 03:04 34.04441 -89.10549 8998 ft 454 kts 291°
2026-05-07 03:05 34.05721 -89.14079 11096 ft 245 kts 287°
2026-05-07 03:05 34.05247 -89.11910 15489 ft 434 kts 110°
2026-05-07 03:05 34.04330 -89.08166 15220 ft 502 kts 111°
2026-05-07 03:05 34.03166 -89.04021 15628 ft 533 kts 115°
2026-05-07 03:06 34.01785 -88.99717 15571 ft 578 kts 115°
2026-05-07 03:06 34.00277 -88.95081 15283 ft 625 kts 115°
2026-05-07 03:06 33.98557 -88.90019 13582 ft 663 kts 115°
2026-05-07 03:06 33.97321 -88.85321 7982 ft 228 kts 105°
2026-05-07 03:07 33.96964 -88.83249 8640 ft 269 kts 105°
2026-05-07 03:07 33.96915 -88.80931 9958 ft 303 kts 116°
2026-05-07 03:07 33.95520 -88.78808 10015 ft 360 kts 137°
2026-05-07 03:07 33.93690 -88.76334 10360 ft 430 kts 136°
2026-05-07 03:08 33.91534 -88.73489 10056 ft 473 kts 136°
2026-05-07 03:08 33.89423 -88.70755 10032 ft 427 kts 137°
2026-05-07 03:08 33.87466 -88.68252 9932 ft 393 kts 137°
2026-05-07 03:08 33.85698 -88.65920 10077 ft 365 kts 131°
2026-05-07 03:09 33.84917 -88.62973 10409 ft 389 kts 95°
2026-05-07 03:09 33.84944 -88.60769 9531 ft 427 kts 82°
2026-05-07 03:09 33.86370 -88.56686 9018 ft 463 kts 59°
2026-05-07 03:09 33.88198 -88.53295 7933 ft 501 kts 52°
2026-05-07 03:10 33.90481 -88.50066 8010 ft 505 kts 45°
2026-05-07 03:10 33.92987 -88.47103 8089 ft 509 kts 40°
2026-05-07 03:10 33.95740 -88.44383 8066 ft 513 kts 34°
2026-05-07 03:10 33.98740 -88.42099 7785 ft 507 kts 25°
2026-05-07 03:11 34.01988 -88.40596 7619 ft 484 kts
2026-05-07 03:11 34.05191 -88.40636 7738 ft 461 kts 345°
2026-05-07 03:11 34.07933 -88.42322 7223 ft 434 kts 315°
2026-05-07 03:11 34.09479 -88.45288 6640 ft 413 kts 283°
2026-05-07 03:12 34.09469 -88.48652 6204 ft 394 kts 255°
2026-05-07 03:12 34.08399 -88.51502 5954 ft 359 kts 237°
2026-05-07 03:12 34.06965 -88.53805 5939 ft 326 kts 230°
2026-05-07 03:12 34.05509 -88.55718 5833 ft 301 kts 226°
2026-05-07 03:13 34.03973 -88.57360 5652 ft 283 kts 220°
2026-05-07 03:13 34.02415 -88.58701 5211 ft 278 kts 209°
2026-05-07 03:13 34.00556 -88.58757 5201 ft 295 kts 148°
2026-05-07 03:13 33.99601 -88.56495 5219 ft 330 kts 92°
2026-05-07 03:14 33.99980 -88.53656 5030 ft 365 kts 71°
2026-05-07 03:14 34.01037 -88.50807 5127 ft 384 kts 59°
2026-05-07 03:14 34.03809 -88.45140 4675 ft 389 kts 66°
2026-05-07 03:15 34.04491 -88.42066 4804 ft 370 kts 85°
2026-05-07 03:15 34.04293 -88.39027 4699 ft 363 kts 105°
2026-05-07 03:15 34.03646 -88.36130 4682 ft 356 kts 106°
2026-05-07 03:15 34.03002 -88.33264 4580 ft 355 kts 105°
2026-05-07 03:16 34.02284 -88.30445 4651 ft 347 kts 112°
2026-05-07 03:16 34.01224 -88.27771 4519 ft 361 kts 121°
2026-05-07 03:16 33.99937 -88.25168 4688 ft 365 kts 121°
2026-05-07 03:16 33.98695 -88.22468 4665 ft 371 kts 120°
2026-05-07 03:17 33.97500 -88.19807 4777 ft 346 kts 119°
2026-05-07 03:17 33.96599 -88.17172 4410 ft 341 kts 90°
2026-05-07 03:17 33.98063 -88.15224 4036 ft 341 kts 29°
2026-05-07 03:17 34.00128 -88.13779 4035 ft 338 kts 28°
2026-05-07 03:18 34.02095 -88.12467 4028 ft 310 kts 28°
2026-05-07 03:18 34.03921 -88.11210 4027 ft 298 kts 29°
2026-05-07 03:18 34.05784 -88.10749 3969 ft 292 kts 315°
2026-05-07 03:18 34.05391 -88.12623 3920 ft 289 kts 208°
2026-05-07 03:19 34.03622 -88.13867 3992 ft 293 kts 212°
2026-05-07 03:19 34.01899 -88.15140 3977 ft 286 kts 212°
2026-05-07 03:19 34.00245 -88.16381 4026 ft 278 kts 212°
2026-05-07 03:19 33.98600 -88.17538 3950 ft 276 kts 211°
2026-05-07 03:20 33.96936 -88.18685 3966 ft 276 kts 211°
2026-05-07 03:20 33.95259 -88.19833 3942 ft 278 kts 210°
2026-05-07 03:20 33.93554 -88.20958 3922 ft 280 kts 209°
2026-05-07 03:20 33.91838 -88.22063 3957 ft 279 kts 208°
2026-05-07 03:21 33.90115 -88.23134 3947 ft 279 kts 208°
2026-05-07 03:21 33.88419 -88.24222 3926 ft 278 kts 211°
2026-05-07 03:21 33.86760 -88.25423 3919 ft 277 kts 212°
2026-05-07 03:21 33.85110 -88.26632 3929 ft 276 kts 212°
2026-05-07 03:22 33.83519 -88.27911 3925 ft 274 kts 224°
2026-05-07 03:22 33.82525 -88.29835 3907 ft 273 kts 253°
2026-05-07 03:22 33.82529 -88.32091 3887 ft 275 kts 285°
2026-05-07 03:22 33.83377 -88.34161 3909 ft 276 kts 298°
2026-05-07 03:23 33.84367 -88.36235 3397 ft 295 kts 298°
2026-05-07 03:23 33.85242 -88.38514 3058 ft 301 kts 284°
2026-05-07 03:23 33.85561 -88.40947 3035 ft 296 kts 274°
2026-05-07 03:23 33.85678 -88.43417 2948 ft 294 kts 270°
2026-05-07 03:24 33.85657 -88.45861 2895 ft 292 kts 265°
2026-05-07 03:24 33.85371 -88.48275 2718 ft 295 kts 256°
2026-05-07 03:24 33.84728 -88.50728 2094 ft 315 kts 249°
2026-05-07 03:24 33.83847 -88.53156 1939 ft 315 kts 245°
2026-05-07 03:25 33.83222 -88.54705 1969 ft 306 kts 245°
2026-05-07 03:25 33.81983 -88.57681 1991 ft 293 kts 244°
2026-05-07 03:25 33.81049 -88.59827 1980 ft 285 kts 240°
2026-05-07 03:25 33.80292 -88.61134 1970 ft 281 kts 231°
2026-05-07 03:26 33.78802 -88.62533 1949 ft 274 kts 200°
2026-05-07 03:26 33.77201 -88.61738 1924 ft 283 kts 125°
2026-05-07 03:26 33.76041 -88.59851 2003 ft 273 kts 124°
2026-05-07 03:26 33.74963 -88.58028 1996 ft 262 kts 122°
2026-05-07 03:27 33.74070 -88.56483 1862 ft 180 kts 123°
2026-05-07 03:27 33.73375 -88.55410 1646 ft 157 kts 126°
2026-05-07 03:27 33.72633 -88.54435 1609 ft 159 kts 131°
2026-05-07 03:27 33.71876 -88.53520 1611 ft 149 kts 131°
2026-05-07 03:28 33.71169 -88.52672 1581 ft 142 kts 130°
2026-05-07 03:28 33.70469 -88.51808 1605 ft 149 kts 130°
2026-05-07 03:28 33.69743 -88.50921 1383 ft 150 kts 130°
2026-05-07 03:28 33.69020 -88.50016 1141 ft 151 kts 130°
2026-05-07 03:29 33.68277 -88.49104 940 ft 153 kts 131°
2026-05-07 03:29 33.67523 -88.48213 751 ft 150 kts 131°
2026-05-07 03:29 33.66790 -88.47343 547 ft 148 kts 131°
2026-05-07 03:29 33.66052 -88.46456 373 ft 150 kts 132°
2026-05-07 03:30 33.65339 -88.45608 215 ft 129 kts 131°
2026-05-07 03:30 33.64797 -88.44943 209 ft 96 kts 134°
2026-05-07 03:30 33.64491 -88.44577 207 ft 43 kts 137°
2026-05-07 03:30 33.64258 -88.44320 204 ft 47 kts 134°
2026-05-07 03:31 33.64019 -88.44035 205 ft 50 kts 135°
2026-05-07 03:31 33.63759 -88.43727 209 ft 52 kts 134°
2026-05-07 03:31 33.63627 -88.43555 201 ft 14 kts 135°